User: anonymous   Login
Location: Iesi
(43.5167°N, 13.2333°E)
Time: 20:37:28
(UTC+00:00)
Language:

USA 32 - Orbit

View from above orbital plane
View from above orbital plane
View from above satellite
View from above satellite

Ground track
Ground track

The orbit data is extracted from the following two-line orbital elements,

1 19460U 88078A   20271.14407677 0.00000060  00000-0  21738-4 0    03
2 19460  84.9854 246.5477 0003164 358.0474   1.9524 14.33504211    05
Epoch (UTC): 27 September 2020 03:27:28
Eccentricity: 0.0003164
inclination: 84.9854°
perigee height: 778 km
apogee height: 782 km
right ascension of ascending node: 246.5477°
argument of perigee: 358.0474°
revolutions per day: 14.33504211
mean anomaly at epoch: 1.9524°
orbit number at epoch: 0

The dashed part of the orbit path shows where the satellite is in the earth's shadow,  

DLR